Weather History for KNUW - September, 2013

Change the Weather History Date:

Saturday, September 7, 2013

  Actual Average Record
Temperature  
Mean Temperature 59 °F -  
Max Temperature 64 °F 63 °F 71 °F (2012)
Min Temperature 54 °F 48 °F 42 °F (1999)
Degree Days  
Heating Degree Days 6    
Growing Degree Days 9 (Base 50)    
Moisture  
Dew Point 57 °F    
Average Humidity 90    
Maximum Humidity 100    
Minimum Humidity 78    
Precipitation  
Precipitation 0.00 in - - ()
Sea Level Pressure  
Sea Level Pressure 30.09 in    
Wind  
Wind Speed 5 mph (SSW)    
Max Wind Speed 9 mph    
Max Gust Speed -    
Visibility 8 miles    
Events Fog , Rain    
Averages and records for this station are not official NWS values.
T = Trace of Precipitation, MM = Missing Value Source: NWS Daily Summary

Daily Weather History Graph

Daily Weather History Graph

Search for Another Location

Airport or City:

Trip Planner

Search our weather history database for the weather conditions in past years. The results will help you decide how hot, cold, wet, or windy it might be!

Date:

Astronomy

Sep. 07, 2013 Rise Set
Actual Time 6:36 AM PDT 7:39 PM PDT
Civil Twilight 6:04 AM PDT 8:10 PM PDT
Nautical Twilight 5:26 AM PDT 8:49 PM PDT
Astronomical Twilight 4:45 AM PDT 9:29 PM PDT
Moon 9:12 AM PDT (9/7) 8:23 PM PDT (9/7)
Length of Visible Light 14h 05m
Length of Day
13h 02m
Waxing Crescent, 6% of the Moon is Illuminated
Sep 7
Waxing Crescent
Sep 12
First Quarter
Sep 19
Full
Sep 26
Last Quarter
Oct 4
New

Hourly Weather History & Observations

Time (PDT) Temp. Dew Point Humidity Pressure Visibility Wind Dir Wind Speed Gust Speed Precip Events Conditions
12:56 AM 60.1 °F 57.0 °F 90% 30.12 in 10.0 mi SE 5.8 mph - N/A   Overcast
1:56 AM 62.1 °F 57.9 °F 86% 30.12 in 10.0 mi SE 6.9 mph - N/A   Overcast
2:56 AM 62.1 °F 57.9 °F 86% 30.11 in 10.0 mi SE 5.8 mph - N/A   Overcast
3:45 AM 62.6 °F 59.0 °F 88% 30.10 in 10.0 mi SE 6.9 mph - 0.00 in Rain Light Rain
3:56 AM 62.1 °F 59.0 °F 90% 30.11 in 10.0 mi ESE 6.9 mph - 0.00 in Rain Light Rain
4:31 AM 62.6 °F 59.0 °F 88% 30.10 in 10.0 mi SE 6.9 mph - 0.00 in   Overcast
4:56 AM 62.1 °F 59.0 °F 90% 30.11 in 10.0 mi SSE 8.1 mph - 0.00 in   Overcast
5:56 AM 62.1 °F 59.0 °F 90% 30.10 in 10.0 mi SE 4.6 mph - N/A   Overcast
6:44 AM 62.6 °F 59.0 °F 88% 30.10 in 10.0 mi Calm Calm - 0.00 in Rain Light Rain
6:56 AM 62.1 °F 59.0 °F 90% 30.11 in 10.0 mi SE 3.5 mph - 0.00 in Rain Light Rain
7:56 AM 61.0 °F 59.0 °F 93% 30.10 in 10.0 mi SSE 3.5 mph - 0.00 in   Overcast
8:40 AM 62.6 °F 60.8 °F 94% 30.10 in 10.0 mi Calm Calm - 0.00 in Rain Light Rain
8:56 AM 62.1 °F 60.1 °F 93% 30.12 in 10.0 mi Calm Calm - 0.00 in Rain Light Rain
9:25 AM 62.6 °F 60.8 °F 94% 30.10 in 10.0 mi Calm Calm - 0.00 in   Mostly Cloudy
9:56 AM 63.0 °F 59.0 °F 87% 30.12 in 10.0 mi Calm Calm - 0.00 in   Overcast
10:56 AM 61.0 °F 59.0 °F 93% 30.12 in 10.0 mi West 3.5 mph - N/A   Mostly Cloudy
11:56 AM 64.0 °F 57.9 °F 80% 30.11 in 10.0 mi West 6.9 mph - N/A   Mostly Cloudy
12:56 PM 64.0 °F 57.9 °F 80% 30.10 in 10.0 mi WSW 6.9 mph - N/A   Mostly Cloudy
1:56 PM 64.0 °F 57.0 °F 78% 30.10 in 10.0 mi West 8.1 mph - N/A   Scattered Clouds
2:56 PM 62.1 °F 55.9 °F 80% 30.09 in 10.0 mi WSW 9.2 mph - N/A   Scattered Clouds
3:40 PM 60.8 °F 55.4 °F 82% 30.08 in 10.0 mi West 6.9 mph - N/A   Scattered Clouds
3:56 PM 60.1 °F 57.0 °F 90% 30.09 in 0.5 mi WSW 6.9 mph - N/A   Scattered Clouds
4:11 PM 60.8 °F 57.2 °F 88% 30.07 in 0.5 mi WSW 6.9 mph - N/A   Scattered Clouds
4:56 PM 59.0 °F 55.9 °F 90% 30.07 in 0.5 mi West 3.5 mph - N/A   Scattered Clouds
5:21 PM 60.8 °F 57.2 °F 88% 30.06 in 10.0 mi West 3.5 mph - N/A   Scattered Clouds
5:56 PM 61.0 °F 57.0 °F 87% 30.06 in 10.0 mi WNW 3.5 mph - N/A   Scattered Clouds
6:32 PM 57.2 °F 57.2 °F 100% 30.05 in 0.5 mi WNW 3.5 mph - N/A   Scattered Clouds
6:56 PM 57.0 °F 57.0 °F 100% 30.06 in 0.5 mi Calm Calm - N/A   Mostly Cloudy
7:56 PM 57.0 °F 55.9 °F 96% 30.06 in 0.5 mi Calm Calm - N/A Fog Fog
8:56 PM 57.9 °F 57.0 °F 97% 30.07 in 0.5 mi WSW 4.6 mph - N/A Fog Fog
9:48 PM 55.4 °F 53.6 °F 94% 30.08 in 4.0 mi Calm Calm - N/A   Scattered Clouds
9:56 PM 55.0 °F 53.1 °F 93% 30.09 in 4.0 mi Calm Calm - N/A   Scattered Clouds
10:56 PM 54.0 °F 53.1 °F 97% 30.10 in 9.0 mi NNW 3.5 mph - N/A   Partly Cloudy
11:56 PM 55.0 °F 53.1 °F 93% 30.09 in 10.0 mi South 3.5 mph - N/A   Partly Cloudy